User: anonymous   Login
Location: Unspecified
(0.0000°N, 0.0000°E)
Time: 06:57:09
(UTC+00:00)
Language:

Oscar 16 - Orbit

View from above orbital plane
View from above orbital plane
View from above satellite
View from above satellite

Ground track
Ground track

The orbit data is extracted from the following two-line orbital elements,

1 20439U 90005D   19083.20164345  .00000001  00000-0  16640-4 0  9990
2 20439  98.6837  30.8044 0011872  64.2748  47.8560 14.32750320523760
Epoch (UTC): 24 March 2019 04:50:21
Eccentricity: 0.0011872
inclination: 98.6837°
perigee height: 774 km
apogee height: 791 km
right ascension of ascending node: 30.8044°
argument of perigee: 64.2748°
revolutions per day: 14.32750320
mean anomaly at epoch: 47.8560°
orbit number at epoch: 52376

The dashed part of the orbit path shows where the satellite is in the earth's shadow,  

DLR